Weather History for PAEN - September, 2014

Change the Weather History Date:

Wednesday, September 3, 2014

  Actual Average Record
Temperature  
Mean Temperature 55 °F -  
Max Temperature 63 °F 58 °F 68 °F (1968)
Min Temperature 46 °F 40 °F 31 °F (1976)
Degree Days  
Heating Degree Days 10    
Growing Degree Days 5 (Base 50)    
Moisture  
Dew Point 46 °F    
Average Humidity 73    
Maximum Humidity 94    
Minimum Humidity 43    
Precipitation  
Precipitation 0.00 in - - ()
Sea Level Pressure  
Sea Level Pressure 30.00 in    
Wind  
Wind Speed 10 mph (NE)    
Max Wind Speed 20 mph    
Max Gust Speed 25 mph    
Visibility 10 miles    
Events      
Averages and records for this station are not official NWS values.
T = Trace of Precipitation, MM = Missing Value Source: NWS Daily Summary

Daily Weather History Graph

Daily Weather History Graph

Search for Another Location

Airport or City:

Trip Planner

Search our weather history database for the weather conditions in past years. The results will help you decide how hot, cold, wet, or windy it might be!

Date:

Astronomy

Sep. 03, 2014 Rise Set
Actual Time 7:03 AM AKDT 9:03 PM AKDT
Civil Twilight 6:18 AM AKDT 9:48 PM AKDT
Nautical Twilight 5:19 AM AKDT 10:46 PM AKDT
Astronomical Twilight 4:03 AM AKDT 11:59 PM AKDT
Moon 5:49 PM AKDT (9/3) 12:13 AM AKDT (9/3)
Length of Visible Light 15h 29m
Length of Day
13h 59m
Waxing Gibbous, 65% of the Moon is Illuminated
Sep 3
Waxing Gibbous
Sep 8
Full
Sep 15
Last Quarter
Sep 23
New
Oct 1
First Quarter

Hourly Weather History & Observations

Time (AKDT) Temp. Dew Point Humidity Pressure Visibility Wind Dir Wind Speed Gust Speed Precip Events Conditions
12:53 AM 55.9 °F 48.9 °F 77% 29.92 in 10.0 mi South 19.6 mph 25.3 mph N/A   Clear
1:53 AM 55.0 °F 48.9 °F 80% 29.93 in 10.0 mi SSW 13.8 mph - N/A   Clear
2:53 AM 55.0 °F 48.9 °F 80% 29.94 in 10.0 mi SSW 15.0 mph - N/A   Clear
4:53 AM 53.1 °F 48.9 °F 86% 29.96 in 10.0 mi SSW 9.2 mph - N/A   Clear
5:53 AM 50.0 °F 46.9 °F 89% 29.98 in 10.0 mi East 5.8 mph - N/A   Partly Cloudy
6:53 AM 50.0 °F 48.0 °F 93% 29.99 in 10.0 mi NE 4.6 mph - N/A   Overcast
7:53 AM 51.1 °F 48.0 °F 89% 30.00 in 10.0 mi NE 9.2 mph - N/A   Overcast
8:53 AM 52.0 °F 48.9 °F 89% 30.01 in 10.0 mi ENE 4.6 mph - N/A   Overcast
9:53 AM 53.1 °F 50.0 °F 89% 30.01 in 10.0 mi NE 6.9 mph - N/A   Overcast
10:27 AM 53.6 °F 51.8 °F 94% 30.02 in 10.0 mi NE 8.1 mph - N/A   Overcast
10:53 AM 54.0 °F 50.0 °F 86% 30.03 in 10.0 mi NE 8.1 mph - N/A   Overcast
11:32 AM 55.4 °F 51.8 °F 88% 30.02 in 10.0 mi NE 6.9 mph - N/A   Scattered Clouds
11:53 AM 55.9 °F 50.0 °F 80% 30.03 in 10.0 mi ENE 5.8 mph - N/A   Scattered Clouds
12:53 PM 57.9 °F 48.9 °F 72% 30.03 in 10.0 mi NNE 8.1 mph - N/A   Mostly Cloudy
1:53 PM 60.1 °F 48.9 °F 67% 30.03 in 10.0 mi Variable 4.6 mph - N/A   Mostly Cloudy
2:35 PM 62.6 °F 48.2 °F 59% 30.02 in 10.0 mi Variable 4.6 mph - N/A   Scattered Clouds
2:53 PM 62.1 °F 45.0 °F 53% 30.02 in 10.0 mi Variable 5.8 mph - N/A   Partly Cloudy
3:53 PM 62.1 °F 41.0 °F 46% 30.02 in 10.0 mi North 10.4 mph - N/A   Clear
4:53 PM 62.1 °F 39.0 °F 43% 30.00 in 10.0 mi North 11.5 mph - N/A   Clear
5:53 PM 62.1 °F 39.0 °F 43% 29.99 in 10.0 mi North 10.4 mph - N/A   Clear
6:53 PM 61.0 °F 39.9 °F 46% 29.99 in 10.0 mi NNE 10.4 mph - N/A   Clear
7:53 PM 59.0 °F 39.9 °F 49% 29.99 in 10.0 mi NNE 10.4 mph - N/A   Clear
8:53 PM 53.1 °F 42.1 °F 66% 29.99 in 10.0 mi North 6.9 mph - N/A   Clear
9:53 PM 50.0 °F 43.0 °F 77% 30.01 in 10.0 mi North 3.5 mph - N/A   Clear
10:53 PM 48.9 °F 41.0 °F 74% 30.01 in 8.0 mi NNE 3.5 mph - N/A   Partly Cloudy
11:53 PM 46.9 °F 42.1 °F 83% 30.01 in 10.0 mi Calm Calm - N/A   Clear